TimeAEST,TemperatureF,Dew PointF,Humidity,Sea Level PressureIn,VisibilityMPH,Wind Direction,Wind SpeedMPH,Gust SpeedMPH,PrecipitationIn,Events,Conditions,WindDirDegrees,DateUTC
12:00 AM,54,45,63,29.86,,West,9.2,,,,,270,2013-06-17 14:00:00
12:00 AM,53.6,44.6,72,29.86,6.2,West,9.2,-,N/A,,Overcast,270,2013-06-17 14:00:00
12:30 AM,51.8,44.6,76,29.83,6.2,West,8.1,-,N/A,,Overcast,280,2013-06-17 14:30:00
1:00 AM,50,44,74,29.86,,West,9.2,,,,,280,2013-06-17 15:00:00
1:00 AM,50.0,44.6,82,29.83,6.2,West,9.2,-,N/A,,Unknown,280,2013-06-17 15:00:00
1:30 AM,50.0,44.6,82,29.86,6.2,West,10.4,-,N/A,,Unknown,280,2013-06-17 15:30:00
2:00 AM,48.2,44.6,87,29.83,6.2,West,10.4,-,N/A,,Unknown,280,2013-06-17 16:00:00
2:30 AM,48.2,44.6,87,29.86,6.2,WNW,9.2,-,N/A,,Unknown,290,2013-06-17 16:30:00
3:00 AM,47,44,83,29.86,,WNW,9.2,,,,,290,2013-06-17 17:00:00
3:00 AM,48.2,42.8,82,29.86,6.2,WNW,9.2,-,N/A,,Unknown,290,2013-06-17 17:00:00
3:30 AM,48.2,42.8,82,29.86,6.2,WNW,10.4,-,N/A,,Unknown,290,2013-06-17 17:30:00
4:00 AM,48,43,75,29.86,,WNW,13.8,,,,,290,2013-06-17 18:00:00
4:00 AM,48.2,42.8,82,29.86,6.2,WNW,13.8,-,N/A,,Unknown,290,2013-06-17 18:00:00
4:30 AM,48.2,42.8,82,29.86,6.2,WNW,11.5,-,N/A,,Unknown,290,2013-06-17 18:30:00
5:00 AM,46.4,41.0,81,29.86,6.2,WNW,11.5,-,N/A,,Unknown,290,2013-06-17 19:00:00
5:30 AM,48.2,41.0,76,29.86,6.2,WNW,16.1,-,N/A,,Unknown,290,2013-06-17 19:30:00
6:00 AM,49,42,68,29.90,25,WNW,16.1,,,,Partly Cloudy,290,2013-06-17 20:00:00
6:00 AM,48.2,41.0,76,29.89,6.2,WNW,16.1,-,N/A,,Mostly Cloudy,290,2013-06-17 20:00:00
6:30 AM,48.2,41.0,76,29.89,6.2,WNW,13.8,-,N/A,,Scattered Clouds,290,2013-06-17 20:30:00
7:00 AM,47,41,73,29.91,,WNW,13.8,,,,,290,2013-06-17 21:00:00
7:00 AM,48.2,41.0,76,29.89,6.2,WNW,13.8,-,N/A,,Partly Cloudy,290,2013-06-17 21:00:00
7:30 AM,48.2,41.0,76,29.92,6.2,WNW,12.7,-,N/A,,Partly Cloudy,290,2013-06-17 21:30:00
8:00 AM,50.0,41.0,71,29.92,6.2,WNW,13.8,-,N/A,,Partly Cloudy,290,2013-06-17 22:00:00
8:30 AM,51.8,41.0,67,29.92,6.2,WNW,15.0,-,N/A,,Partly Cloudy,290,2013-06-17 22:30:00
9:00 AM,53,41,53,29.94,25,WNW,15.0,,,,Partly Cloudy,290,2013-06-17 23:00:00
9:00 AM,53.6,41.0,62,29.92,6.2,WNW,15.0,-,N/A,,Partly Cloudy,290,2013-06-17 23:00:00
9:30 AM,55.4,41.0,58,29.95,6.2,West,18.4,-,N/A,,Partly Cloudy,280,2013-06-17 23:30:00
10:00 AM,56,41,46,29.95,,WNW,16.1,,,,,290,2013-06-18 00:00:00
10:00 AM,57.2,41.0,55,29.95,6.2,WNW,16.1,-,N/A,,Partly Cloudy,290,2013-06-18 00:00:00
10:30 AM,57.2,39.2,51,29.92,6.2,WNW,16.1,-,N/A,,Partly Cloudy,290,2013-06-18 00:30:00
11:00 AM,60.8,41.0,48,29.92,6.2,West,15.0,-,N/A,,Partly Cloudy,280,2013-06-18 01:00:00
11:30 AM,59.0,41.0,51,29.92,6.2,West,12.7,-,N/A,,Partly Cloudy,270,2013-06-18 01:30:00
12:00 PM,60,41,39,29.92,25,WNW,15.0,,,,Partly Cloudy,290,2013-06-18 02:00:00
12:00 PM,60.8,41.0,48,29.92,6.2,WNW,15.0,-,N/A,,Partly Cloudy,290,2013-06-18 02:00:00
12:30 PM,60.8,41.0,48,29.89,6.2,WNW,15.0,-,N/A,,Partly Cloudy,290,2013-06-18 02:30:00
1:00 PM,62,41,34,29.90,,WNW,13.8,,,,,290,2013-06-18 03:00:00
1:00 PM,62.6,41.0,45,29.89,6.2,WNW,13.8,-,N/A,,Partly Cloudy,290,2013-06-18 03:00:00
1:30 PM,62.6,41.0,45,29.89,6.2,West,10.4,-,N/A,,Partly Cloudy,280,2013-06-18 03:30:00
2:00 PM,62.6,41.0,45,29.86,6.2,West,9.2,-,N/A,,Partly Cloudy,260,2013-06-18 04:00:00
2:30 PM,62.6,41.0,45,29.86,6.2,WSW,8.1,-,N/A,,Partly Cloudy,240,2013-06-18 04:30:00
3:00 PM,63,40,31,29.89,25,West,9.2,,,,Partly Cloudy,260,2013-06-18 05:00:00
3:00 PM,62.6,41.0,45,29.89,6.2,West,9.2,-,N/A,,Partly Cloudy,260,2013-06-18 05:00:00
3:30 PM,62.6,39.2,42,29.89,6.2,West,11.5,-,N/A,,Partly Cloudy,280,2013-06-18 05:30:00
4:00 PM,62,41,35,29.90,,WSW,9.2,,,,,250,2013-06-18 06:00:00
4:00 PM,62.6,41.0,45,29.89,6.2,WSW,9.2,-,N/A,,Partly Cloudy,250,2013-06-18 06:00:00
4:30 PM,59.0,41.0,51,29.89,6.2,West,8.1,-,N/A,,Partly Cloudy,270,2013-06-18 06:30:00
5:00 PM,55.4,41.0,58,29.92,6.2,West,6.9,-,N/A,,Partly Cloudy,270,2013-06-18 07:00:00
5:30 PM,55.4,42.8,63,29.92,-9999.0,West,5.8,-,N/A,,Clear,270,2013-06-18 07:30:00
6:00 PM,54,44,60,29.94,,West,5.8,,,,Overcast,270,2013-06-18 08:00:00
6:00 PM,53.6,44.6,72,29.92,-9999.0,West,5.8,-,N/A,,Clear,270,2013-06-18 08:00:00
6:30 PM,55.4,46.4,72,29.95,6.2,West,6.9,-,N/A,Rain,Light Rain Showers,270,2013-06-18 08:30:00
7:00 PM,53,48,78,29.96,,SW,5.8,,,,,230,2013-06-18 09:00:00
7:00 PM,53.6,48.2,82,29.95,6.2,SW,5.8,-,N/A,,Mostly Cloudy,230,2013-06-18 09:00:00
7:30 PM,51.8,46.4,82,29.95,6.2,West,6.9,-,N/A,,Mostly Cloudy,260,2013-06-18 09:30:00
7:52 PM,53.6,50.0,88,29.98,2.5,SW,15.0,-,N/A,Rain,Rain Showers,220,2013-06-18 09:52:00
8:00 PM,53.6,50.0,88,29.98,6.2,SSW,11.5,24.2,N/A,Rain,Light Rain Showers,210,2013-06-18 10:00:00
8:11 PM,53.6,48.2,82,29.98,6.2,South,9.2,-,N/A,Rain,Rain Showers,190,2013-06-18 10:11:00
8:30 PM,53.6,48.2,82,29.98,6.2,SW,8.1,-,N/A,,Overcast,220,2013-06-18 10:30:00
9:00 PM,52,48,82,29.99,,West,5.8,,,,Overcast,280,2013-06-18 11:00:00
9:00 PM,51.8,48.2,88,29.98,6.2,West,5.8,-,N/A,,Mostly Cloudy,280,2013-06-18 11:00:00
9:30 PM,51.8,48.2,88,29.98,6.2,WNW,8.1,-,N/A,,Mostly Cloudy,290,2013-06-18 11:30:00
10:00 PM,51,47,83,30.00,,West,10.4,,,,,280,2013-06-18 12:00:00
10:00 PM,50.0,48.2,94,29.98,6.2,West,10.4,-,N/A,,Mostly Cloudy,280,2013-06-18 12:00:00
10:30 PM,50.0,46.4,87,30.01,6.2,WNW,9.2,-,N/A,,Mostly Cloudy,290,2013-06-18 12:30:00
11:00 PM,50.0,46.4,87,30.01,6.2,West,8.1,-,N/A,,Overcast,280,2013-06-18 13:00:00
11:30 PM,48.2,46.4,93,30.01,6.2,WNW,8.1,-,N/A,,Scattered Clouds,290,2013-06-18 13:30:00